Location: *
(12.5665°N, 8.3471°E)
Time: 00:53:27
(UTC+00:00)

Cosmos 2221 Rocket - Pass Details

Date: 23 September 2019
Orbit: 621 x 647 km, 82.5° (Epoch: 21 October)

Event Time Altitude Azimuth Distance (km) Brightness Sun altitude
Rises 04:14:16 0° 198° (SSW) 2,892 6.8 -15.8°
Reaches altitude 10° 04:16:36 10° 206° (SSW) 1,984 5.9 -15.3°
Maximum altitude 04:20:42 39° 275° (W) 933 4.0 -14.3°
Drops below altitude 10° 04:24:48 10° 345° (NNW) 1,983 6.0 -13.3°
Sets 04:27:09 0° 353° (N) 2,890 7.0 -12.7°
